Location: Roland
(31.1349°N, 85.4372°W)
Time: 07:45:34
(UTC+00:00)

Vanguard 2 Rocket - Pass Details

Date: 19 April 2021
Orbit: 554 x 3326 km, 32.9° (Epoch: 16 May)

Event Time Altitude Azimuth Distance (km) Brightness Sun altitude
Rises 01:15:35 0° 288° (WNW) 7,159 13.5 -13.7°
Reaches altitude 10° 01:20:53 10° 285° (WNW) 5,914 12.4 -14.7°
Maximum altitude 01:37:19 56° 214° (SW) 2,485 9.1 -17.9°
Enters shadow 01:44:44 21° 145° (SE) 3,085 9.1 -19.3°
